Regional Weather Roundup
Issued by NWS

Home | Current Version | Previous Version | Graphics & Text | Print | Product List | Glossary On
Versions: 1 2 3 4 5 6 7 8 9 10 11 12 13 14 15 16 17 18 19 20 21 22 23 24 25 26 27 28 29 30 31 32 33 34 35 36 37 38 39 40 41 42 43 44 45 46 47 48 49 50
000
ASUS43 KLMK 010402
RWRKY
KENTUCKY REGIONAL WEATHER ROUNDUP
NATIONAL WEATHER SERVICE LOUISVILLE KY
1200 AM EDT WED OCT 01 2014

NOTE "FAIR" INDICATES FEW OR NO CLOUDS BELOW 12,000 FEET
WITH NO SIGNIFICANT WEATHER AND/OR OBSTRUCTIONS TO VISIBILITY.

KYZ001>023-026-027-061>063-070>075-010500-
WESTERN AND SOUTH CENTRAL KENTUCKY

CITY           SKY/WX    TMP DP  RH WIND       PRES   REMARKS
PADUCAH        PTCLDY    60  57  89 CALM      29.90S
HENDERSON      NOT AVBL
OWENSBORO      CLEAR     70  61  73 NE5       29.93R
HOPKINSVILLE   NOT AVBL
BOWLING GREEN  CLEAR     65  58  78 N3        29.93S
GLASGOW        PTCLDY    59  58  99 CALM      29.93S
$$

KYZ024-025-028>034-038-045-046-053-010500-
NORTH CENTRAL KENTUCKY

CITY           SKY/WX    TMP DP  RH WIND       PRES   REMARKS
LOUISVILLE/SDF CLEAR     68  60  75 NE6       29.94R
LOUISVILLE/LOU CLEAR     67  59  75 NE6       29.95R
FORT KNOX      CLEAR     65  60  85 NE5       29.93S
$$

KYZ035>037-039>044-047>052-055>060-089>105-010500-
NORTHEAST KENTUCKY

CITY           SKY/WX    TMP DP  RH WIND       PRES   REMARKS
LEXINGTON      CLEAR     65  58  78 NE6       29.96R
COVINGTON      CLEAR     58  49  72 NE9       29.98R
FRANKFORT      CLEAR     64  58  80 NE3       29.95R
$$

KYZ054-064>069-076>088-106>120-010500-
SOUTHEAST KENTUCKY

CITY           SKY/WX    TMP DP  RH WIND       PRES   REMARKS
JACKSON        CLEAR     67  55  65 NW5       29.96S
LONDON         PTCLDY    61  57  87 CALM      29.96S
SOMERSET       CLEAR     59  57  94 CALM      29.96S
MIDDLESBORO    CLEAR     56  55  97 CALM      29.99R
MONTICELLO     CLEAR     55  54  97 CALM      29.97S
$$



USA.gov is the U.S. government's official web portal to all federal, state and local government web resources and services.